Location: Croydon
(51.3762°N, 0.0982°W)
Time: 16:48:01
(UTC+01:00)

KKS-1 - Visible Passes

Search period start: 18 October 2019 00:00
Search period end: 27 October 2019 23:00
Orbit: 637 x 650 km, 98.3° (Epoch: 18 October)

Date Brightness Start Highest point End Pass type
(mag) Time Alt. Az. Time Alt. Az. Time Alt. Az.
18 Oct ? 06:02:40 10° ESE 06:05:49 19° ENE 06:08:59 10° NNE visible
18 Oct ? 20:59:18 10° N 20:59:50 13° N 20:59:50 13° N visible
19 Oct ? 06:26:17 10° ESE 06:30:08 29° ENE 06:33:59 10° N visible
19 Oct ? 21:23:59 10° N 21:24:12 11° N 21:24:12 11° N visible
20 Oct ? 06:50:15 10° SE 06:54:31 46° ENE 06:58:48 10° N visible
21 Oct ? 05:41:10 10° E 05:43:11 13° NE 05:45:13 10° NNE visible
22 Oct ? 06:04:14 10° ESE 06:07:25 19° ENE 06:10:36 10° NNE visible
23 Oct ? 06:27:52 10° ESE 06:31:44 29° ENE 06:35:36 10° N visible
24 Oct ? 06:51:51 10° SE 06:56:07 46° ENE 07:00:24 10° N visible
25 Oct ? 05:42:43 10° E 05:44:47 13° NE 05:46:51 10° NNE visible
26 Oct ? 06:05:49 10° ESE 06:09:01 20° ENE 06:12:13 10° NNE visible
27 Oct ? 05:29:27 10° ESE 05:33:20 30° ENE 05:37:13 10° N visible
